Home   Weather   Mexicali   Past weeks

Flag for Mexico Past Weather in Mexicali, Baja California, Mexico — Yesterday and Last 2 Weeks

Now
78 °F

Clear.


Feels Like: 79 °F
Forecast: 72 / 95 °F
Wind: 3 mph from Southwest

Location: Imperial County Airport

Current Time: Sep 28, 2016 at 1:32:44 AM

Latest Report: Sep 28, 2016 at 12:53 AM


Visibility: 10 mi

Pressure: 29.83 "Hg

Humidity: 48%

Dew Point: 57 °F

Location of MexicaliLocation

Past Weather in Mexicali — Graph

°F

Mexicali Temperature Yesterday

Maximum temperature yesterday: 95 °F (at 2:53 PM)
Minimum temperature yesterday: 72 °F (at 6:53 AM)
Average temperature yesterday: 85 °F

High & Low Weather Summary for the Past Weeks

 TemperatureHumidityPressure
High107 °F (Sep 18, 2:53 PM)94% (Sep 20, 8:53 PM)30.01 "Hg (Sep 20, 8:53 PM)
Low60 °F (Sep 24, 5:53 AM)7% (Sep 15, 3:53 PM)29.67 "Hg (Sep 22, 4:53 PM)
Average82 °F35%29.86 "Hg
* Reported Sep 12 11:53 PM — Sep 27 11:53 PM, Mexicali, Weather by CustomWeather, © 2016

Note: Actual official high and low records may vary slightly from our data, if they occured in-between our weather recording intervals... More about our weather records

Advertising

Mexicali Weather History for the Previous 24 Hours

Scroll right to see more
 ConditionsComfort  
Time TempWeatherWind HumidityBarometerVisibility
11:53 PM
Tue, Sep 27
80 °FClear.6 mph45%29.84 "Hg10 mi
10:53 PM82 °FClear.No wind41%29.83 "Hg10 mi
9:53 PM83 °FClear.5 mph40%29.84 "Hg10 mi
8:53 PM85 °FClear.5 mph37%29.83 "Hg10 mi
7:53 PM87 °FClear.8 mph35%29.81 "Hg10 mi
6:53 PM90 °FClear.5 mph31%29.80 "Hg10 mi
5:53 PM92 °FPassing clouds.7 mph28%29.80 "Hg10 mi
4:53 PM93 °FPartly sunny.9 mph27%29.80 "Hg10 mi
3:53 PM94 °FPassing clouds.6 mph26%29.81 "Hg10 mi
2:53 PM95 °FSunny.N/A25%29.82 "Hg10 mi
1:53 PM94 °FSunny.5 mph26%29.84 "Hg10 mi
12:53 PM93 °FSunny.10 mph27%29.87 "Hg10 mi
11:53 AM92 °FSunny.8 mph28%29.89 "Hg10 mi
10:53 AM89 °FSunny.5 mph29%29.91 "Hg10 mi
9:53 AM86 °FSunny.6 mph30%29.92 "Hg10 mi
8:53 AM83 °FSunny.7 mph33%29.92 "Hg10 mi
7:53 AM81 °FSunny.No wind35%29.90 "Hg10 mi
6:53 AM72 °FSunny.No wind52%29.89 "Hg10 mi
5:53 AM75 °FClear.No wind45%29.88 "Hg10 mi
4:53 AM77 °FClear.No wind39%29.87 "Hg10 mi
3:53 AM78 °FClear.No wind37%29.85 "Hg10 mi
2:53 AM81 °FClear.7 mph34%29.86 "Hg10 mi
1:53 AM84 °FClear.3 mph32%29.87 "Hg10 mi
Weather by CustomWeather, © 2016

See weather overviewHow to use our weather pages